Location: Unspecified
(0.0000°N, 0.0000°E)
Time: 01:20:28
(UTC+00:00)

JUGNU - Visible Passes

Search period start: 20 July 2018 00:00
Search period end: 30 July 2018 00:00
Orbit: 837 x 864 km, 20.0° (Epoch: 19 July)

Date Brightness Start Highest point End Pass type
(mag) Time Alt. Az. Time Alt. Az. Time Alt. Az.
20 Jul ? 03:18:21 27° NE 03:18:21 27° NE 03:21:57 10° E visible
20 Jul ? 05:00:14 11° WNW 05:05:56 83° NNE 05:11:50 10° ESE visible
20 Jul ? 19:37:29 10° WNW 19:42:05 23° NNW 19:46:42 10° NE visible
21 Jul ? 03:04:56 20° ENE 03:04:56 20° ENE 03:07:02 10° E visible
21 Jul ? 04:46:50 22° WNW 04:50:49 88° SSW 04:56:44 10° ESE visible
21 Jul ? 19:22:39 10° WNW 19:27:01 21° NNW 19:31:24 10° NNE visible
21 Jul ? 21:15:07 10° NNW 21:15:40 11° NNW 21:15:40 11° NNW visible
22 Jul ? 02:51:31 13° E 02:51:31 13° E 02:52:05 10° E visible
22 Jul ? 04:33:25 39° WNW 04:35:42 79° SSW 04:41:37 10° ESE visible
22 Jul ? 19:07:51 10° WNW 19:11:58 19° NNW 19:16:06 10° NNE visible
22 Jul ? 21:00:31 10° NNW 21:01:44 11° N 21:01:44 11° N visible
23 Jul ? 04:19:57 64° WSW 04:20:35 70° SSW 04:26:30 10° ESE visible
23 Jul ? 18:53:05 10° NW 18:56:55 17° NNW 19:00:47 10° NNE visible
23 Jul ? 20:45:59 10° NNW 20:46:55 10° N 20:47:43 10° N visible
24 Jul ? 04:06:26 55° SSE 04:06:26 55° SSE 04:11:21 10° ESE visible
24 Jul ? 18:38:20 10° NW 18:41:54 16° NNW 18:45:28 10° NNE visible
24 Jul ? 20:31:47 10° N 20:31:56 10° N 20:32:05 10° N visible
25 Jul ? 03:52:51 33° SE 03:52:51 33° SE 03:56:11 10° ESE visible
25 Jul ? 05:35:07 10° WSW 05:39:38 22° SSW 05:44:08 10° SSE visible
26 Jul ? 03:39:11 20° SE 03:39:11 20° SE 03:41:00 10° SE visible
26 Jul ? 05:21:04 13° WSW 05:24:35 20° SSW 05:28:53 10° SSE visible
27 Jul ? 03:25:26 12° SE 03:25:26 12° SE 03:25:49 10° SE visible
27 Jul ? 05:07:19 16° SW 05:09:32 19° SSW 05:13:35 10° SSE visible
28 Jul ? 04:53:30 17° SSW 04:54:30 17° SSW 04:58:18 10° SSE visible
29 Jul ? 04:39:36 16° SSW 04:39:36 16° SSW 04:43:01 10° SSE visible
29 Jul ? 21:03:32 10° NNW 21:04:18 12° NNW 21:04:18 12° NNW visible
